This is the latest recevied weather packets stored in our database for station/object WK7G. If no packets are shown the sender has not sent any weather packets the latest 10 day(s).
| Time | Temp. | Humidity | Pressure | Rain* | Wind** | Luminosity | Snow |
|---|---|---|---|---|---|---|---|
| 1778027698 | 10.56° C | 39% | 1003.9 hPa | 0 mm | - | 238 W/m² | - |
| 1778027394 | 10.56° C | 38% | 1003.8 hPa | 0 mm | - | 86 W/m² | - |
| 1778027091 | 11.11° C | 37% | 1003.7 hPa | 0 mm | - | 340 W/m² | - |
| 1778026786 | 10.56° C | 38% | 1003.4 hPa | 0 mm | - | 111 W/m² | - |
| 1778026483 | 11.67° C | 37% | 1003.4 hPa | 0 mm | - | 373 W/m² | - |
| 1778026181 | 11.11° C | 34% | 1003.6 hPa | 0 mm | - | 363 W/m² | - |
| 1778025878 | 10.56° C | 34% | 1003.4 hPa | 0 mm | - | 415 W/m² | - |
| 1778025575 | 11.11° C | 36% | 1003.3 hPa | 0 mm | - | 278 W/m² | - |
| 1778025273 | 11.67° C | 32% | 1003.8 hPa | 0 mm | - | 440 W/m² | - |
| 1778024970 | 11.67° C | 32% | 1003.6 hPa | 0 mm | - | 446 W/m² | - |
| 1778024667 | 11.67° C | 34% | 1004 hPa | 0 mm | - | 459 W/m² | - |
| 1778024363 | 11.67° C | 32% | 1003.8 hPa | 0 mm | - | 450 W/m² | - |
| 1778024062 | 12.22° C | 33% | 1003.9 hPa | 0 mm | - | 440 W/m² | - |
| 1778023759 | 11.67° C | 35% | 1003.7 hPa | 0 mm | - | 446 W/m² | - |
| 1778023457 | 11.67° C | 33% | 1003.7 hPa | 0 mm | - | 482 W/m² | - |
| 1778023153 | 12.22° C | 33% | 1003.6 hPa | 0 mm | - | 519 W/m² | - |
| 1778022851 | 12.22° C | 33% | 1003.4 hPa | 0 mm | - | 507 W/m² | - |
| 1778022549 | 12.22° C | 36% | 1003.4 hPa | 0 mm | - | 523 W/m² | - |
| 1778022246 | 11.67° C | 32% | 1003.4 hPa | 0 mm | - | 562 W/m² | - |
| 1778021943 | 11.67° C | 32% | 1003.4 hPa | 0 mm | - | 521 W/m² | - |
| 1778021640 | 12.22° C | 33% | 1003.6 hPa | 0 mm | - | 544 W/m² | - |
| 1778021340 | 12.22° C | 33% | 1003.4 hPa | 0 mm | - | 512 W/m² | - |
| 1778021038 | 12.78° C | 32% | 1003.3 hPa | 0 mm | - | 262 W/m² | - |
| 1778020735 | 12.22° C | 33% | 1003.7 hPa | 0 mm | - | 571 W/m² | - |
| 1778020432 | 11.67° C | 32% | 1003.3 hPa | 0 mm | - | 568 W/m² | - |
* Rain latest hour (hover to see other rain measurements)
** Current wind speed in m/s (hover to see current wind gust speed)